Miscellaneous Local Product
Issued by NWS Hastings, NE

Home | Current Version | Previous Version | Graphics & Text | Print | Product List | Glossary On
Versions: 1 2 3 4 5 6 7 8 9 10 11 12 13 14 15 16 17 18 19 20 21 22 23 24 25 26 27 28 29 30 31 32 33 34 35 36 37 38 39 40 41 42 43 44 45 46 47 48 49 50
000
AXUS43 KGID 221113
MISGRI

GID CWA HOURLY WEATHER ROUNDUP
NATIONAL WEATHER SERVICE HASTINGS NE
600 AM CDT TUE JUL 22 2014

NOTE: "FAIR" INDICATES FEW OR NO CLOUDS BELOW 12,000 FEET WITH NO
SIGNIFICANT WEATHER AND/OR OBSTRUCTIONS TO VISIBILITY.

...SOUTH CENTRAL NEBRASKA...

CITY           SKY/WX    TMP DP  RH WIND       PRES   REMARKS
GRAND ISLAND   MOCLDY    75  67  76 W9        30.01R
HASTINGS       MOCLDY    73  65  75 W7        30.03R
KEARNEY        MOCLDY    75  63  64 W9        30.03R
ORD            CLEAR     74  63  68 N13       30.04R
AURORA         MOCLDY    75  72  88 W7        29.99R

...NEBRASKA PANHANDLE...

CITY           SKY/WX    TMP DP  RH WIND       PRES   REMARKS
CHADRON        CLEAR     63  60  90 CALM      30.15R
ALLIANCE       CLEAR     66  62  87 N7        30.16R
SCOTTSBLUFF    CLEAR     70  60  70 NE18G26   30.14R
SIDNEY         CLEAR     65  52  62 NW6       30.17R

...WESTERN AND NORTH CENTRAL NEBRASKA...

CITY           SKY/WX    TMP DP  RH WIND       PRES   REMARKS
VALENTINE      CLOUDY    70  66  87 N3        30.11S
BROKEN BOW     CLEAR     75  62  64 N14G28    30.06R
IMPERIAL       PTCLDY    69  60  73 NE12      30.07R
NORTH PLATTE   PTCLDY    75  59  57 NE16G23   30.07R
MCCOOK         CLEAR     72  62  71 NE13G21   30.09R

...EASTERN NEBRASKA...

CITY           SKY/WX    TMP DP  RH WIND       PRES   REMARKS
NORFOLK        PTCLDY    76  67  73 N15G28    29.97R
SO SIOUX CITY  CLEAR     79  73  82 NW18G26   29.92R
TEKAMAH        MOCLDY    81  72  74 S3        29.90R
COLUMBUS       MOCLDY    79  70  73 CALM      29.96R
OMAHA EPPLEY   CLOUDY    84  69  60 S6        29.92R
OFFUTT AFB     CLOUDY    80  73  79 S1        29.93R
LINCOLN        PTCLDY    79  68  69 SW6       29.95R
FALLS CITY     PTCLDY    77  74  90 SW9       29.95R

...NORTHERN KANSAS...

CITY           SKY/WX    TMP DP  RH WIND       PRES   REMARKS
GOODLAND       CLEAR     68  59  73 W10       30.10S
HILL CITY      PTCLDY    67  61  81 CALM      30.05R
NORTON         SUNNY     64  57  77 SW3       30.04S
PHILLIPSBURG   CLEAR     68  63  83 CALM      30.03R
SMITH CENTER   CLEAR     66  66 100 CALM      30.03R
HAYS           PTCLDY    70  59  68 NW9       30.04R
RUSSELL        CLEAR     69  67  93 SE9       30.02R
CONCORDIA      CLEAR     77  71  82 SW12      29.99R
SALINA         CLEAR     75  71  87 S7        30.01R
TOPEKA         CLEAR     79  75  87 S5        30.00R



USA.gov is the U.S. government's official web portal to all federal, state and local government web resources and services.